CST,Max TemperatureF,Mean TemperatureF,Min TemperatureF,Max Dew PointF,MeanDew PointF,Min DewpointF,Max Humidity, Mean Humidity, Min Humidity, Max Sea Level PressureIn, Mean Sea Level PressureIn, Min Sea Level PressureIn, Max VisibilityMiles, Mean VisibilityMiles, Min VisibilityMiles, Max Wind SpeedMPH, Mean Wind SpeedMPH, Max Gust SpeedMPH,PrecipitationIn, CloudCover, Events, WindDirDegrees
2012-12-1,58,42,26,50,39,26,100,88,75,30.14,30.02,29.88,10,4,0,21,9,28,T,5,Fog,172
2012-12-2,63,54,44,54,50,44,100,89,65,30.06,29.98,29.87,10,5,0,17,6,24,0.08,5,Fog,258
2012-12-3,69,59,48,61,57,48,100,89,68,30.03,29.88,29.76,10,5,0,31,13,43,0.02,7,Fog-Rain,191
2012-12-4,57,46,34,47,35,26,80,60,42,30.31,30.10,29.91,10,10,9,20,10,24,0.00,1,,307
2012-12-5,41,31,21,27,23,16,82,70,55,30.44,30.35,30.22,10,10,10,14,7,17,0.00,0,,71
2012-12-6,45,38,31,39,34,27,85,78,68,30.22,30.02,29.91,10,10,9,16,10,20,T,5,Rain,182
2012-12-7,44,42,39,41,37,34,100,85,73,29.97,29.92,29.89,10,8,3,12,7,14,0.06,8,Rain,19
2012-12-8,42,38,34,36,33,28,100,87,70,30.10,29.97,29.87,10,8,2,16,10,20,0.10,8,Rain-Snow,19
2012-12-9,40,37,34,39,36,33,100,93,86,30.08,29.85,29.71,10,6,1,18,8,23,0.10,8,Rain-Snow,96
2012-12-10,37,33,29,34,28,22,100,87,69,29.96,29.80,29.71,10,7,2,22,13,30,T,8,Rain,290
2012-12-11,34,27,20,27,22,18,93,79,56,30.16,30.03,29.94,10,9,7,22,10,26,0.00,3,,226
2012-12-12,44,33,21,27,24,19,92,73,47,30.30,30.25,30.17,10,10,10,18,10,23,0.00,0,,181
2012-12-13,48,37,25,30,26,23,85,68,41,30.28,30.20,30.11,10,10,8,24,11,31,0.00,0,,188
2012-12-14,48,36,24,33,29,23,92,74,48,30.21,30.14,30.03,10,10,6,10,5,13,0.00,0,,159
2012-12-15,49,45,41,47,42,31,100,89,60,30.01,29.68,29.56,10,5,2,21,12,28,0.31,8,Rain,176
2012-12-16,49,44,38,46,40,33,93,88,81,29.74,29.63,29.57,10,9,6,18,12,22,0.00,8,,249
2012-12-17,38,33,28,33,30,26,92,83,75,29.75,29.72,29.66,9,8,4,10,4,13,0.00,7,,327
2012-12-18,40,35,29,37,32,26,93,86,75,29.84,29.70,29.59,9,5,4,22,8,28,T,8,Rain,202
2012-12-19,41,36,30,36,32,27,93,85,73,30.06,29.96,29.77,7,5,3,18,8,25,0.02,7,Rain,49
2012-12-20,49,41,32,48,36,28,100,92,86,29.71,29.32,29.01,10,4,1,36,17,51,0.79,8,Rain-Snow,29
2012-12-21,32,25,18,28,18,12,87,77,68,30.20,29.90,29.49,10,10,3,36,21,46,T,4,Snow,312
2012-12-22,30,21,12,23,16,9,92,80,66,30.24,30.13,29.97,10,10,7,12,5,14,0.00,0,,212
2012-12-23,33,24,14,27,22,14,96,86,78,30.04,29.99,29.94,10,8,5,13,6,15,0.00,5,,10
2012-12-24,31,29,26,27,25,21,89,83,79,30.12,29.94,29.86,10,9,7,15,8,21,T,8,,349
2012-12-25,28,24,20,22,20,17,84,79,74,30.32,30.26,30.13,10,10,9,15,9,18,T,8,,5
2012-12-26,32,29,26,24,22,20,86,73,64,30.19,30.08,30.00,10,10,9,25,17,33,T,8,,19
2012-12-27,31,29,26,26,23,19,86,79,74,30.21,30.14,30.08,10,10,8,14,7,17,0.00,8,,360
2012-12-28,31,29,27,29,27,25,96,89,80,30.12,30.01,29.87,10,5,1,12,4,13,T,8,Snow,161
2012-12-29,30,24,17,30,23,13,100,87,75,30.24,29.97,29.85,10,6,1,21,12,25,T,8,Snow,293
2012-12-30,32,22,11,26,17,8,88,80,69,30.36,30.25,30.09,10,8,4,17,9,22,0.00,0,,222
2012-12-31,33,26,19,25,20,10,86,75,68,30.16,30.07,30.02,10,9,7,17,11,23,0.00,5,,283